Home   Weather   New York   Past weeks
Flag for USA

Past Weather in New York, New York, USA — Yesterday and Last 2 Weeks

Now
48 °F

Mostly cloudy.


Feels Like: N/A
Forecast: 42 / 52 °F
Wind: N/A

Location: New York City - Central Park

Current Time: Nov 12, 2018 at 9:48:23 pm

Latest Report: Nov 12, 2018 at 8:51 pm


Visibility: 10 mi

Pressure: 30.34 "Hg

Humidity: 63%

Dew Point: 36 °F

Location of New YorkLocation

Past Weather in New York — Graph

°F

New York Temperature Yesterday

Maximum temperature yesterday: 46 °F (at 2:51 pm)
Minimum temperature yesterday: 34 °F (at 2:51 am)
Average temperature yesterday: 40 °F

High & Low Weather Summary for the Past Weeks

 TemperatureHumidityPressure
High71 °F (Nov 2, 12:51 pm)100% (Nov 6, 5:51 am)30.54 "Hg (Nov 6, 5:51 am)
Low34 °F (Nov 11, 2:51 am)31% (Oct 30, 4:51 pm)29.57 "Hg (Nov 3, 7:51 am)
Average52 °F70%30.03 "Hg
* Reported Oct 28 8:51 pm — Nov 12 7:51 pm, New York. Weather by CustomWeather, © 2018

Note: Actual official high and low records may vary slightly from our data, if they occured in-between our weather recording intervals... More about our weather records

Advertising

New York Weather History for the Previous 24 Hours

Scroll right to see more
 ConditionsComfort  
Time TempWeatherWind HumidityBarometerVisibility
7:51 pm
Mon, Nov 12
47 °FClear.N/A66%30.34 "Hg10 mi
6:51 pm47 °FClear.N/A64%30.35 "Hg10 mi
5:51 pm46 °FClear.N/A61%30.36 "Hg10 mi
4:51 pm47 °FClear.N/A52%30.37 "Hg10 mi
3:51 pm48 °FSunny.N/A46%30.35 "Hg10 mi
2:51 pm49 °FPassing clouds.N/A39%30.35 "Hg10 mi
1:51 pm49 °FSunny.N/A36%30.36 "Hg10 mi
12:51 pm49 °FScattered clouds.N/A38%30.38 "Hg10 mi
11:51 am47 °FOvercast.N/A39%30.41 "Hg10 mi
10:51 am47 °FPartly sunny.N/A41%30.44 "Hg10 mi
9:51 am45 °FSunny.N/A53%30.43 "Hg10 mi
8:51 am41 °FSunny.N/A62%30.44 "Hg10 mi
7:51 am39 °FSunny.N/A73%30.42 "Hg10 mi
6:51 am38 °FSunny.N/A73%30.40 "Hg10 mi
5:51 am39 °FClear.N/A70%30.39 "Hg10 mi
4:51 am38 °FClear.N/A70%30.40 "Hg10 mi
3:51 am37 °FClear.N/A70%30.40 "Hg10 mi
2:51 am39 °FClear.N/A60%30.40 "Hg10 mi
1:51 am40 °FClear.N/A58%30.39 "Hg10 mi
12:51 am38 °FClear.N/A63%30.38 "Hg10 mi
11:51 pm
Sun, Nov 11
40 °FClear.N/A51%30.39 "Hg10 mi
10:51 pm40 °FClear.N/A53%30.37 "Hg10 mi
9:51 pm40 °FClear.N/A51%30.37 "Hg10 mi
Weather by CustomWeather, © 2018

See weather overview